When you browse on this site, cookies collect data to enhance your experience and personalize the content and advertising you see.
Visit our Privacy Policy to learn more. By continuing to use the site, you agree to this use of cookies and data.
  • In Latvia
  • List of Countries
  • For 7 days
  • Water Temperature
  • Satellite Maps
  • Weather Map
  • Weather Widgets
  • user-avatar
    Login

    Hourly Weather Akniste

    Today, 21 July, Sunday

    Time Temperature Precipitation Wind Pressure Humidity
    00:00 +14°C° 0 mm 1 mps 754 mmHg 87%
    01:00 +14°C° 0 mm 1 mps 754 mmHg 87%
    02:00 +14°C° 0 mm 1 mps 754 mmHg 87%
    03:00 +14°C° 0 mm 1 mps 754 mmHg 87%
    04:00 +14°C° 0 mm 1 mps 754 mmHg 88%
    05:00 +14°C° 0 mm 1 mps 754 mmHg 88%
    06:00 +16°C° 0 mm 1 mps 754 mmHg 80%
    07:00 +19°C° 0 mm 1 mps 754 mmHg 73%
    08:00 +22°C° 0 mm 1 mps 755 mmHg 65%
    09:00 +23°C° 0 mm 1 mps 754 mmHg 58%
    10:00 +25°C° 0 mm 2 mps 754 mmHg 51%
    11:00 +26°C° 0 mm 2 mps 754 mmHg 44%
    12:00 +27°C° 0 mm 2 mps 754 mmHg 42%
    13:00 +28°C° 0 mm 2 mps 754 mmHg 40%
    14:00 +28°C° 0 mm 1 mps 754 mmHg 37%
    15:00 +28°C° 0 mm 2 mps 753 mmHg 40%
    16:00 +28°C° 0 mm 2 mps 753 mmHg 42%
    17:00 +28°C° 0 mm 2 mps 753 mmHg 45%
    18:00 +26°C° 0.1 mm 2 mps 753 mmHg 56%
    19:00 +24°C° 0.1 mm 2 mps 752 mmHg 68%
    20:00 +20°C° 0.1 mm 2 mps 752 mmHg 80%
    21:00 +20°C° 0.2 mm 2 mps 752 mmHg 84%
    22:00 +20°C° 0.2 mm 1 mps 752 mmHg 88%
    23:00 +19°C° 0.2 mm 1 mps 753 mmHg 91%

    Tomorrow, 22 July, Monday

    Time Temperature Precipitation Wind Pressure Humidity
    00:00 +19°C° 0.1 mm 1 mps 752 mmHg 92%
    01:00 +18°C° 0.1 mm 1 mps 752 mmHg 92%
    02:00 +18°C° 0.1 mm 1 mps 752 mmHg 92%
    03:00 +18°C° 0.5 mm 1 mps 752 mmHg 94%
    04:00 +18°C° 0.5 mm 1 mps 752 mmHg 96%
    05:00 +18°C° 0.5 mm 1 mps 752 mmHg 98%
    06:00 +18°C° 1.3 mm 1 mps 752 mmHg 98%
    07:00 +18°C° 1.3 mm 1 mps 752 mmHg 98%
    08:00 +16°C° 1.3 mm 0 mps 752 mmHg 98%
    09:00 +18°C° 1.6 mm 1 mps 752 mmHg 98%
    10:00 +19°C° 1.6 mm 1 mps 752 mmHg 97%
    11:00 +19°C° 1.6 mm 1 mps 752 mmHg 96%
    12:00 +20°C° 0.7 mm 1 mps 752 mmHg 94%
    13:00 +20°C° 0.7 mm 1 mps 751 mmHg 92%
    14:00 +21°C° 0.7 mm 1 mps 751 mmHg 90%
    15:00 +21°C° 0.6 mm 1 mps 751 mmHg 90%
    16:00 +21°C° 0.6 mm 1 mps 751 mmHg 90%
    17:00 +21°C° 0.6 mm 1 mps 751 mmHg 90%
    18:00 +20°C° 0.5 mm 1 mps 751 mmHg 92%
    19:00 +19°C° 0.5 mm 1 mps 751 mmHg 94%
    20:00 +19°C° 0.5 mm 1 mps 751 mmHg 96%
    21:00 +18°C° 0.1 mm 1 mps 751 mmHg 96%
    22:00 +16°C° 0.1 mm 1 mps 752 mmHg 97%
    23:00 +16°C° 0.1 mm 1 mps 752 mmHg 98%

    Day after tomorrow, 23 July, Tuesday

    Time Temperature Precipitation Wind Pressure Humidity
    00:00 +16°C° 0.1 mm 1 mps 752 mmHg 98%
    01:00 +16°C° 0.1 mm 1 mps 752 mmHg 98%
    02:00 +16°C° 0.1 mm 1 mps 752 mmHg 98%
    03:00 +15°C° 0 mm 2 mps 752 mmHg 98%
    04:00 +15°C° 0 mm 2 mps 752 mmHg 98%
    05:00 +15°C° 0 mm 2 mps 752 mmHg 98%
    06:00 +16°C° 0 mm 2 mps 752 mmHg 96%
    07:00 +17°C° 0 mm 2 mps 752 mmHg 93%
    08:00 +19°C° 0 mm 2 mps 752 mmHg 91%
    09:00 +20°C° 0.4 mm 2 mps 752 mmHg 82%
    10:00 +23°C° 0.4 mm 2 mps 752 mmHg 73%
    11:00 +24°C° 0.4 mm 2 mps 752 mmHg 64%
    12:00 +25°C° 0.1 mm 2 mps 752 mmHg 61%
    13:00 +25°C° 0.1 mm 3 mps 752 mmHg 59%
    14:00 +26°C° 0.1 mm 3 mps 752 mmHg 56%
    15:00 +26°C° 0 mm 3 mps 752 mmHg 57%
    16:00 +26°C° 0 mm 3 mps 752 mmHg 59%
    17:00 +25°C° 0 mm 3 mps 752 mmHg 60%
    18:00 +24°C° 0.2 mm 3 mps 752 mmHg 69%
    19:00 +21°C° 0.2 mm 2 mps 752 mmHg 79%
    20:00 +19°C° 0.2 mm 2 mps 752 mmHg 88%
    21:00 +18°C° 0 mm 2 mps 752 mmHg 91%
    22:00 +17°C° 0 mm 2 mps 753 mmHg 93%
    23:00 +16°C° 0 mm 2 mps 753 mmHg 96%

    24 July, Wednesday

    Time Temperature Precipitation Wind Pressure Humidity
    00:00 +16°C° 0 mm 2 mps 753 mmHg 96%
    01:00 +15°C° 0 mm 2 mps 753 mmHg 96%
    02:00 +15°C° 0 mm 1 mps 753 mmHg 97%
    03:00 +15°C° 0 mm 1 mps 753 mmHg 97%
    04:00 +15°C° 0 mm 1 mps 753 mmHg 97%
    05:00 +15°C° 0 mm 1 mps 754 mmHg 97%
    06:00 +16°C° 0 mm 1 mps 754 mmHg 92%
    07:00 +19°C° 0 mm 1 mps 754 mmHg 87%
    08:00 +21°C° 0 mm 1 mps 754 mmHg 81%
    09:00 +22°C° 0 mm 1 mps 754 mmHg 73%
    10:00 +24°C° 0 mm 1 mps 754 mmHg 65%
    11:00 +26°C° 0 mm 1 mps 754 mmHg 57%
    12:00 +26°C° 0.1 mm 1 mps 754 mmHg 56%
    13:00 +27°C° 0.1 mm 1 mps 754 mmHg 55%
    14:00 +27°C° 0.1 mm 1 mps 754 mmHg 54%
    15:00 +27°C° 0.2 mm 2 mps 754 mmHg 60%
    16:00 +26°C° 0.2 mm 2 mps 754 mmHg 65%
    17:00 +25°C° 0.2 mm 2 mps 754 mmHg 70%
    18:00 +24°C° 0.1 mm 2 mps 755 mmHg 75%
    19:00 +23°C° 0.1 mm 2 mps 755 mmHg 79%
    20:00 +20°C° 0.1 mm 2 mps 755 mmHg 84%
    21:00 +19°C° 0 mm 2 mps 755 mmHg 86%
    22:00 +18°C° 0 mm 2 mps 755 mmHg 89%
    23:00 +17°C° 0 mm 2 mps 756 mmHg 92%

    25 July, Thursday

    Time Temperature Precipitation Wind Pressure Humidity
    00:00 +16°C° 0 mm 2 mps 756 mmHg 93%
    01:00 +16°C° 0 mm 1 mps 756 mmHg 94%
    02:00 +16°C° 0 mm 1 mps 756 mmHg 95%
    03:00 +16°C° 0 mm 1 mps 756 mmHg 96%
    04:00 +16°C° 0 mm 1 mps 757 mmHg 96%
    05:00 +15°C° 0 mm 1 mps 757 mmHg 96%
    06:00 +18°C° 0 mm 1 mps 757 mmHg 89%
    07:00 +20°C° 0 mm 1 mps 757 mmHg 82%
    08:00 +22°C° 0 mm 1 mps 758 mmHg 76%
    09:00 +24°C° 0 mm 2 mps 758 mmHg 69%
    10:00 +25°C° 0 mm 2 mps 758 mmHg 62%
    11:00 +27°C° 0 mm 2 mps 758 mmHg 55%
    12:00 +28°C° 0 mm 2 mps 758 mmHg 52%
    13:00 +28°C° 0 mm 2 mps 758 mmHg 50%
    14:00 +29°C° 0 mm 2 mps 758 mmHg 47%
    15:00 +28°C° 0 mm 2 mps 757 mmHg 51%
    16:00 +28°C° 0 mm 2 mps 757 mmHg 54%
    17:00 +28°C° 0 mm 2 mps 757 mmHg 57%
    18:00 +26°C° 0 mm 1 mps 757 mmHg 65%
    19:00 +25°C° 0 mm 1 mps 757 mmHg 72%
    20:00 +23°C° 0 mm 1 mps 757 mmHg 79%
    21:00 +20°C° 0 mm 0 mps 758 mmHg 81%
    22:00 +19°C° 0 mm 0 mps 758 mmHg 84%
    23:00 +18°C° 0 mm 0 mps 758 mmHg 86%

    26 July, Friday

    Time Temperature Precipitation Wind Pressure Humidity
    00:00 +19°C° 0 mm 1 mps 758 mmHg 88%
    01:00 +19°C° 0 mm 1 mps 758 mmHg 89%
    02:00 +19°C° 0 mm 1 mps 758 mmHg 91%
    03:00 +19°C° 0 mm 1 mps 758 mmHg 91%
    04:00 +19°C° 0 mm 1 mps 759 mmHg 92%
    05:00 +18°C° 0 mm 1 mps 759 mmHg 92%
    06:00 +20°C° 0 mm 1 mps 759 mmHg 84%
    07:00 +22°C° 0 mm 1 mps 759 mmHg 77%
    08:00 +24°C° 0 mm 1 mps 759 mmHg 69%
    09:00 +26°C° 0 mm 1 mps 758 mmHg 63%
    10:00 +27°C° 0 mm 2 mps 758 mmHg 56%
    11:00 +29°C° 0 mm 2 mps 758 mmHg 49%
    12:00 +29°C° 0 mm 2 mps 758 mmHg 48%
    13:00 +30°C° 0 mm 2 mps 758 mmHg 47%
    14:00 +30°C° 0 mm 1 mps 757 mmHg 46%
    15:00 +30°C° 0 mm 2 mps 757 mmHg 49%
    16:00 +30°C° 0 mm 2 mps 757 mmHg 52%
    17:00 +29°C° 0 mm 2 mps 756 mmHg 56%
    18:00 +27°C° 0 mm 1 mps 756 mmHg 63%
    19:00 +26°C° 0 mm 1 mps 756 mmHg 71%
    20:00 +24°C° 0 mm 1 mps 756 mmHg 79%
    21:00 +23°C° 0 mm 1 mps 756 mmHg 81%
    22:00 +22°C° 0 mm 1 mps 756 mmHg 84%
    23:00 +21°C° 0 mm 1 mps 756 mmHg 86%
    Show more